Stations météo

Publicité
Millau, France (7558): Température de l'air & dewpoint: 12.09.2018 17:00:00 - 18.09.2018 17:00:00 (CEST)Millau, France (7558): Température de l'air 5cm: 12.09.2018 17:00:00 - 18.09.2018 17:00:00 (CEST)Millau, France (7558): Température de l'air -20cm & Température de l'air -100cm: 12.09.2018 17:00:00 - 18.09.2018 17:00:00 (CEST)Millau, France (7558): Vitesse du vent & gusts: 12.09.2018 17:00:00 - 18.09.2018 17:00:00 (CEST)Millau, France (7558): Direction du vent: 12.09.2018 17:00:00 - 18.09.2018 17:00:00 (CEST)Millau, France (7558): reduced air pressure: 12.09.2018 17:00:00 - 18.09.2018 17:00:00 (CEST)Millau, France (7558): visibility: 12.09.2018 17:00:00 - 18.09.2018 17:00:00 (CEST)Millau, France (7558): Ensoleillement: 12.09.2018 17:00:00 - 18.09.2018 17:00:00 (CEST)Millau, France (7558): Quantités de précipitations: 12.09.2018 17:00:00 - 18.09.2018 17:00:00 (CEST)
Date & Time tt [°C] td [°C] tt 5cm [°C] tt -20cm [°C] tt -100cm [°C] ff [km/h] ff [knt] fx [km/h] fx [knt] dd ppp [hPa] vv [km] sd [min] rr [mm]
18.09.2018 17:00:00 23,5 13,4 25,3 21,9 21,3 16 8 30 16 SE 1015,4 20 41 0,0
18.09.2018 16:00:00 23,9 13,4 25,1 21,8 21,3 23 12 38 20 SSE 1015,8 20 31 0,0
18.09.2018 15:00:00 23,7 13,6 25,5 21,8 21,3 21 11 35 19 SSE 1015,9 20 18 0,0
18.09.2018 14:00:00 23,6 14,3 24,6 21,8 21,3 21 11 32 17 SSE 1016,1 20 24 0,0
18.09.2018 13:00:00 22,1 14,0 23,9 21,7 21,3 15 8 34 18 SSE 1016,8 20 12 0,0
18.09.2018 12:00:00 21,5 14,2 21,0 21,8 21,3 16 9 27 15 SE 1017,3 20 48 0,0
18.09.2018 11:00:00 19,2 14,2 19,4 21,9 21,3 12 6 21 11 ESE 1018,1 20 22 0,0
18.09.2018 10:00:00 18,0 14,3 16,9 21,9 21,3 12 7 20 11 ESE 1018,4 20 24 0,0
18.09.2018 09:00:00 16,2 13,9 15,3 22,0 21,3 8 4 15 8 E 1018,6 20 14 0,0
18.09.2018 08:00:00 15,5 13,7 14,1 22,1 21,3 8 4 21 11 E 1018,3 19 0 0,0
18.09.2018 07:00:00 15,1 13,6 14,0 22,1 21,3 15 8 23 12 ESE 1017,9 17 0 0,0
18.09.2018 06:00:00 15,2 13,7 14,3 22,2 21,3 11 6 25 14 E 1017,8 16 0 0,0
18.09.2018 05:00:00 14,8 13,7 13,8 22,3 21,3 9 5 26 14 ESE 1018,2 13 0 0,0
18.09.2018 04:00:00 15,2 13,7 13,7 22,4 21,3 18 10 28 15 SE 1018,2 18 0 0,0
18.09.2018 03:00:00 15,3 13,8 13,9 22,4 21,3 6 3 19 10 ESE 1018,4 20 0 0,0
18.09.2018 02:00:00 15,3 14,0 13,4 22,5 21,3 13 7 23 12 ESE 1018,4 20 0 0,0
18.09.2018 01:00:00 15,6 14,0 14,7 22,5 21,3 16 9 27 14 SE 1018,6 20 0 0,0
18.09.2018 00:00:00 16,3 13,0 15,1 22,5 21,3 16 9 26 14 SE 1018,6 20 0 0,0
17.09.2018 23:00:00 16,9 13,0 15,6 22,5 21,3 16 8 28 15 SE 1018,3 20 0 0,0
17.09.2018 22:00:00 17,5 13,6 16,3 22,5 21,3 16 8 27 14 SE 1018,0 20 0 0,0
17.09.2018 21:00:00 18,2 13,9 17,1 22,5 21,3 18 10 23 13 SSE 1017,2 20 0 0,0
17.09.2018 20:00:00 19,8 13,7 18,8 22,4 21,3 19 10 32 17 SSE 1016,3 20 33 0,0
17.09.2018 19:00:00 21,9 13,3 23,8 22,3 21,3 22 12 35 19 S 1015,9 20 60 0,0
17.09.2018 18:00:00 23,5 13,4 27,2 22,1 21,3 25 13 36 19 SSE 1015,5 20 60 0,0
17.09.2018 17:00:00 24,4 13,0 29,1 22,0 21,3 24 13 37 20 SSE 1015,7 20 60 0,0
17.09.2018 16:00:00 24,9 12,5 29,6 21,9 21,3 27 15 41 22 SSE 1016,2 20 60 0,0
17.09.2018 15:00:00 24,6 12,5 26,6 21,9 21,3 24 13 42 23 SSE 1016,9 20 55 0,0
17.09.2018 14:00:00 24,1 13,3 28,9 21,8 21,3 23 13 34 19 S 1017,4 20 60 0,0
17.09.2018 13:00:00 23,2 14,2 25,1 21,9 21,3 12 7 22 12 SE 1018,1 20 48 0,0
17.09.2018 12:00:00 20,7 14,8 19,6 21,9 21,3 5 3 13 7 SSE 1019,2 20 39 0,0
17.09.2018 11:00:00 16,5 14,3 17,4 22,0 21,3 7 4 12 7 NNE 1020,7 18 0 0,0
17.09.2018 10:00:00 14,8 13,3 15,2 22,0 21,3 9 5 14 7 NNW 1021,4 14 0 0,0
17.09.2018 09:00:00 13,8 12,4 14,0 22,1 21,3 6 4 12 6 NNE 1021,4 19 0 0,0
17.09.2018 08:00:00 14,3 13,7 13,0 22,2 21,3 7 4 10 6 ENE 1021,2 3,0 0 0,0
17.09.2018 07:00:00 13,7 12,6 12,3 22,3 21,3 7 4 11 6 ENE 1021,2 16 0 0,0
17.09.2018 06:00:00 14,6 12,6 12,3 22,4 21,3 0 0 11 6 N 1021,0 20 0 0,0
17.09.2018 05:00:00 14,4 12,3 12,3 22,4 21,3 6 4 11 6 NE 1020,9 20 0 0,0
17.09.2018 04:00:00 14,8 12,7 12,8 22,5 21,3 6 3 13 7 NNE 1021,0 20 0 0,0
17.09.2018 03:00:00 15,2 13,4 12,6 22,6 21,3 6 3 10 5 NNE 1021,2 20 0 0,0
17.09.2018 02:00:00 15,7 13,2 13,7 22,6 21,3 6 3 13 7 NE 1021,2 20 0 0,0
17.09.2018 01:00:00 16,5 13,2 14,8 22,6 21,3 8 4 10 5 NE 1021,1 20 0 0,0
17.09.2018 00:00:00 16,9 14,4 15,7 22,7 21,4 10 5 13 7 E 1021,1 20 0 0,0
16.09.2018 23:00:00 17,3 13,6 15,7 22,6 21,3 8 4 11 6 ESE 1021,5 20 0 0,0
16.09.2018 22:00:00 18,1 13,4 16,4 22,6 21,3 9 5 20 11 SE 1021,2 20 0 0,0
16.09.2018 21:00:00 19,2 12,9 18,0 22,5 21,3 15 8 27 14 SSE 1020,4 20 0 0,0
16.09.2018 20:00:00 21,4 9,0 19,9 22,4 21,3 14 8 25 13 SSE 1019,0 20 17 0,0
16.09.2018 19:00:00 24,3 7,9 26,5 22,3 21,4 15 8 23 12 SSE 1017,9 20 60 0,0
16.09.2018 18:00:00 26,1 5,6 29,8 22,2 21,3 13 7 22 12 SSW 1017,1 20 60 0,0
16.09.2018 17:00:00 26,6 5,5 30,9 22,1 21,3 14 7 27 15 SW 1017,1 20 60 0,0
16.09.2018 16:00:00 26,3 5,8 30,4 22,0 21,3 14 8 33 18 SSE 1017,1 20 60 0,0
16.09.2018 15:00:00 25,5 6,6 30,0 21,9 21,3 17 9 34 18 SE 1017,6 17 60 0,0
16.09.2018 14:00:00 24,4 7,1 26,3 21,9 21,3 18 10 27 15 SE 1018,5 20 45 0,0
16.09.2018 13:00:00 22,7 8,0 26,5 22,0 21,3 11 6 21 11 SE 1019,3 18 50 0,0
16.09.2018 12:00:00 20,7 8,7 22,1 22,0 21,3 2 1 10 5 NE 1020,3 20 5 0,0
16.09.2018 11:00:00 18,4 8,4 19,2 22,1 21,4 5 3 12 7 NE 1020,9 20 0 0,0
16.09.2018 10:00:00 17,4 8,5 16,8 22,2 21,3 4 2 12 6 ENE 1021,0 20 28 0,0
16.09.2018 09:00:00 15,0 8,2 13,6 22,3 21,4 6 4 11 6 NNE 1021,4 20 1 0,0
16.09.2018 08:00:00 14,4 7,9 12,5 22,4 21,3 8 4 11 6 NE 1021,1 20 0 0,0
16.09.2018 07:00:00 14,6 8,1 12,5 22,4 21,3 4 2 10 5 NNE 1020,9 20 0 0,0
16.09.2018 06:00:00 14,7 8,2 12,1 22,5 21,3 6 3 9 5 NNE 1020,5 20 0 0,0
16.09.2018 05:00:00 15,0 8,5 12,5 22,6 21,3 5 3 13 7 NNE 1020,2 20 0 0,0
16.09.2018 04:00:00 15,0 8,5 12,5 22,7 21,3 8 5 13 7 NNE 1020,5 20 0 0,0
16.09.2018 03:00:00 16,5 8,5 14,5 22,7 21,3 9 5 14 8 E 1020,8 20 0 0,0
16.09.2018 02:00:00 16,3 9,5 14,5 22,8 21,3 7 4 11 6 ESE 1021,6 20 0 0,0
16.09.2018 01:00:00 16,6 9,0 14,4 22,9 21,3 8 4 10 5 ESE 1021,2 20 0 0,0
16.09.2018 00:00:00 18,1 8,4 15,9 22,9 21,4 0 0 11 6 N 1020,7 20 0 0,0
15.09.2018 23:00:00 18,5 8,5 16,4 22,9 21,4 9 5 20 11 NNW 1020,2 20 0 0,0
15.09.2018 22:00:00 19,5 7,6 16,8 22,8 21,3 3 2 6 3 N 1020,0 20 0 0,0
15.09.2018 21:00:00 19,9 7,9 18,6 22,8 21,4 10 5 18 10 WNW 1019,6 20 0 0,0
15.09.2018 20:00:00 21,1 8,0 - - - 13 7 18 10 NW 1018,9 20 - -
15.09.2018 19:00:00 23,4 8,3 23,8 22,6 21,4 13 7 24 13 WSW 1018,0 20 53 0,0
15.09.2018 18:00:00 25,0 8,9 27,5 22,4 21,3 16 9 29 16 SSW 1017,3 20 60 0,0
15.09.2018 17:00:00 25,9 9,7 30,2 22,3 21,3 12 7 26 14 W 1017,1 20 60 0,0
15.09.2018 16:00:00 24,1 10,4 27,6 22,2 21,3 16 9 24 13 SSW 1018,0 20 49 0,0
15.09.2018 15:00:00 23,4 8,7 26,6 22,1 21,3 16 9 27 14 SW 1018,3 20 29 0,0
15.09.2018 14:00:00 24,0 6,7 29,5 22,1 21,4 4 2 20 11 NNE 1018,5 20 60 0,0
15.09.2018 13:00:00 23,0 7,1 29,8 22,1 21,3 10 5 26 14 NNE 1019,1 20 60 0,0
15.09.2018 12:00:00 21,2 8,8 25,0 22,1 21,3 8 4 19 10 N 1020,3 20 60 0,0
15.09.2018 11:00:00 18,4 9,7 23,8 22,1 21,3 10 5 21 12 ENE 1021,3 20 60 0,0
15.09.2018 10:00:00 16,2 9,6 16,6 22,2 21,3 17 9 23 13 NNE 1022,0 20 60 0,0
15.09.2018 09:00:00 13,9 9,7 11,3 22,3 21,3 12 7 16 9 NE 1022,1 20 57 0,0
15.09.2018 08:00:00 12,7 9,5 10,4 22,4 21,3 5 3 9 5 N 1022,6 20 12 0,0
15.09.2018 07:00:00 12,9 9,9 11,2 22,4 21,3 10 5 22 12 NNE 1022,3 20 0 0,0
15.09.2018 06:00:00 13,7 10,1 12,3 22,6 21,3 18 10 23 12 NNE 1021,4 20 0 0,0
15.09.2018 05:00:00 14,1 10,9 12,5 22,6 21,4 18 10 22 12 N 1021,1 20 0 0,0
15.09.2018 04:00:00 14,1 11,3 12,5 22,7 21,3 14 7 17 9 N 1021,1 20 0 0,0
15.09.2018 03:00:00 14,6 11,2 13,5 22,8 21,3 13 7 21 11 N 1021,3 20 0 0,0
15.09.2018 02:00:00 15,0 11,4 13,6 22,8 21,3 12 6 18 10 N 1021,3 20 0 0,0
15.09.2018 01:00:00 15,9 11,3 14,7 22,9 21,3 11 6 24 13 NNW 1021,0 20 0 0,0
15.09.2018 00:00:00 16,7 11,2 15,0 22,9 21,4 13 7 19 10 NW 1020,5 20 0 0,0
14.09.2018 23:00:00 17,3 10,9 15,6 22,9 21,3 9 5 26 14 NW 1020,3 20 0 0,0
14.09.2018 22:00:00 18,1 10,7 16,9 22,9 21,3 14 8 26 14 NW 1019,7 20 0 0,0
14.09.2018 21:00:00 18,9 10,2 17,9 22,8 21,3 16 9 35 19 NW 1019,1 20 0 0,0
14.09.2018 20:00:00 20,0 10,7 19,3 22,7 21,4 19 11 37 20 NW 1018,1 20 39 0,0
14.09.2018 19:00:00 22,6 10,1 25,1 22,6 21,3 24 13 35 19 WNW 1017,0 20 60 0,0
14.09.2018 18:00:00 24,1 10,4 27,4 22,5 21,3 19 10 29 16 WNW 1016,2 20 56 0,0
14.09.2018 17:00:00 24,3 10,6 25,6 22,4 21,3 18 10 32 17 NNW 1015,9 20 39 0,0
14.09.2018 16:00:00 23,2 10,6 27,1 22,3 21,3 16 9 34 19 NW 1016,5 20 41 0,0
14.09.2018 15:00:00 25,0 11,2 25,0 22,3 21,3 10 5 30 16 WNW 1016,2 20 41 0,0
14.09.2018 14:00:00 22,9 11,6 27,0 22,3 21,3 17 9 33 18 NW 1017,2 20 45 0,0
14.09.2018 13:00:00 21,0 12,2 21,8 22,3 21,3 21 12 41 22 NW 1017,9 20 30 0,0
14.09.2018 12:00:00 19,3 12,3 21,5 22,3 21,3 21 11 32 17 NNW 1018,5 20 8 0,0
14.09.2018 11:00:00 18,9 12,2 21,0 22,3 21,3 22 12 33 18 NNW 1018,5 20 30 0,0
14.09.2018 10:00:00 18,3 13,2 22,3 22,4 21,3 22 12 33 18 NW 1018,3 20 58 0,0
14.09.2018 09:00:00 16,7 13,6 14,2 22,5 21,3 13 7 19 11 N 1018,9 20 47 0,0
14.09.2018 08:00:00 14,8 12,8 13,5 22,5 21,3 9 5 22 12 N 1019,2 19 9 0,0
14.09.2018 07:00:00 15,1 13,0 14,2 22,6 21,3 14 8 23 12 N 1019,0 20 0 0,0
14.09.2018 06:00:00 15,6 13,4 14,8 22,6 21,3 9 5 16 9 NNE 1018,7 20 0 0,0
14.09.2018 05:00:00 15,6 14,0 15,1 22,7 21,3 5 3 21 11 WNW 1019,1 20 0 0,0
14.09.2018 04:00:00 15,6 14,1 14,9 22,7 21,3 13 7 17 9 WNW 1019,3 20 0 0,0
14.09.2018 03:00:00 15,6 14,0 15,0 22,8 21,3 13 7 19 10 NW 1019,6 9 0 0,0
14.09.2018 02:00:00 16,7 13,0 16,4 22,9 21,3 13 7 20 11 WNW 1019,7 20 0 0,0
14.09.2018 01:00:00 16,8 12,5 16,5 22,9 21,3 19 10 27 15 NW 1019,8 20 0 0,0
14.09.2018 00:00:00 16,9 12,6 16,5 22,9 21,3 13 7 21 12 NW 1019,9 20 0 0,0
13.09.2018 23:00:00 16,8 12,9 16,3 22,9 21,3 10 5 23 12 NW 1019,8 20 0 0,0
13.09.2018 22:00:00 16,7 13,0 15,8 22,9 21,3 17 9 36 19 NW 1019,7 20 0 0,0
13.09.2018 21:00:00 17,5 13,4 16,8 22,8 21,3 19 10 33 18 NW 1018,7 20 0 0,0
13.09.2018 20:00:00 19,7 13,8 19,2 22,7 21,3 18 10 37 20 NW 1017,3 20 33 0,0
13.09.2018 19:00:00 22,3 13,9 24,4 22,6 21,3 19 11 42 23 NW 1016,4 20 58 0,0
13.09.2018 18:00:00 24,3 13,8 26,8 22,5 21,3 21 12 45 25 W 1015,7 20 57 0,0
13.09.2018 17:00:00 24,9 14,1 28,0 22,4 21,3 23 13 43 23 NW 1015,8 20 54 0,0
13.09.2018 16:00:00 24,4 13,6 30,1 22,3 21,3 29 16 39 21 NW 1016,3 20 60 0,0
13.09.2018 15:00:00 25,2 14,0 28,7 22,2 21,3 20 11 37 20 WNW 1016,5 20 55 0,0
13.09.2018 14:00:00 23,2 14,2 26,8 22,2 21,3 16 9 27 15 NW 1017,4 20 41 0,0
13.09.2018 13:00:00 22,2 14,6 23,9 22,2 21,3 11 6 24 13 W 1018,1 20 40 0,0
13.09.2018 12:00:00 20,2 14,8 22,1 22,2 21,3 14 8 25 14 NW 1019,2 19 4 0,0
13.09.2018 11:00:00 18,6 14,7 19,2 22,3 21,3 6 4 11 6 WNW 1019,6 20 0 0,0
13.09.2018 10:00:00 17,4 14,9 17,1 22,3 21,3 2 1 10 5 W 1019,6 20 0 0,0
13.09.2018 09:00:00 16,4 15,1 15,8 22,4 21,3 3 1 5 3 S 1019,8 15 0 0,0
13.09.2018 08:00:00 15,7 15,1 15,0 22,5 21,3 3 2 6 4 NNW 1019,8 13 0 0,0
13.09.2018 07:00:00 15,4 14,9 14,4 22,6 21,3 4 2 7 4 WSW 1019,7 5 0 0,0
13.09.2018 06:00:00 15,3 14,7 14,3 22,6 21,3 0 0 10 6 N 1019,7 8 0 0,0
13.09.2018 05:00:00 15,5 14,9 14,2 22,7 21,3 9 5 16 9 SW 1019,4 7 0 0,0
13.09.2018 04:00:00 15,5 13,7 14,2 22,8 21,3 13 7 15 8 SSW 1020,0 20 0 0,0
13.09.2018 03:00:00 17,2 13,5 14,6 22,9 21,3 3 2 6 3 WNW 1019,6 20 0 0,0
13.09.2018 02:00:00 17,3 13,4 15,8 22,9 21,3 8 5 12 6 ESE 1020,0 20 0 0,0
13.09.2018 01:00:00 17,8 13,5 16,1 22,9 21,3 9 5 17 9 WNW 1019,9 20 0 0,0
13.09.2018 00:00:00 18,4 13,3 16,7 23,0 21,3 8 5 13 7 SSW 1020,3 20 0 0,0
12.09.2018 23:00:00 19,3 13,2 17,6 23,0 21,3 0 0 10 5 N 1020,3 20 0 0,0
12.09.2018 22:00:00 20,0 13,2 18,5 23,0 21,3 6 3 16 8 SSE 1019,8 20 0 0,0
12.09.2018 21:00:00 20,4 13,1 19,1 22,9 21,3 10 5 16 8 SSE 1019,6 20 0 0,0
12.09.2018 20:00:00 21,8 12,6 21,2 22,9 21,3 11 6 26 14 SSE 1019,2 20 32 0,0
12.09.2018 19:00:00 22,7 12,9 22,5 22,7 21,3 16 9 25 14 SSE 1018,7 20 0 0,0
12.09.2018 18:00:00 23,0 13,7 22,7 22,6 21,3 13 7 32 17 SSE 1018,8 20 0 0,0
12.09.2018 17:00:00 24,4 13,3 24,9 22,5 21,3 20 11 38 20 SSE 1018,4 20 43 0,0

tt = Température de l'air
td = dewpoint
tt 5cm = Température de l'air 5cm
tt -20cm = Température de l'air -20cm
tt -100cm = Température de l'air -100cm
ff = Vitesse du vent
fx = gusts
dd = Direction du vent
ppp = reduced air pressure
vv = visibility
sd = Ensoleillement
rr = Quantités de précipitations

stations d'obs. à proximité